User: anonymous
Location: Caltech
(34.1382°N, 118.1253°W)
Time: 14:36:16
(UTC-07:00)
Language:

Cosmos 2360 Rocket - Orbit

View from above orbital plane
View from above orbital plane
View from above satellite
View from above satellite

Ground track
Ground track

The orbit data is extracted from the following two-line orbital elements,

1 25407U 98045B   14260.42122256 -.00000235  00000-0 -95441-4 0  5570
2 25407 071.0147 350.6762 0010231 292.6988 117.3781 14.15672990834120
Epoch (UTC): 17 September 2014 10:06:33
Eccentricity: 0.0010231
inclination: 71.0147°
perigee height: 832 km
apogee height: 847 km
right ascension of ascending node: 350.6762°
argument of perigee: 292.6988°
revolutions per day: 14.15672990
mean anomaly at epoch: 117.3781°
orbit number at epoch: 83412

The dashed part of the orbit path shows where the satellite is in the earth's shadow,  

DLR